Location: Unspecified
(57.6483°N, 3.3184°W)
Time: 09:53:49
(UTC+00:00)

BlueWalker 3 - Pass Details

Date: 01 February 2026
Orbit: 450 x 461 km, 53.2° (Epoch: 11 February)

Event Time Altitude Azimuth Distance (km) Brightness Sun altitude
Rises 18:54:05 0° 268° (W) 2,461 7.2 -17.9°
Reaches altitude 10° 18:56:19 10° 259° (W) 1,586 5.7 -18.2°
Maximum altitude 18:59:36 35° 192° (SSW) 742 2.9 -18.6°
Enters shadow 19:00:34 29° 157° (SSE) 848 2.9 -18.7°
